Location: *
(26.7153°N, 81.7025°W)
Time: 18:48:18
(UTC+00:00)

Daily predictions for brighter satellites

Satellite Brightness Start Highest point End
(mag) Time Altitude Azimuth Time Altitude Azimuth Time Altitude Azimuth
Cosmos 1486 Rocket 4.2 23:14:11 10° NNW 23:19:32 82° WSW 23:24:50 10° S
Cosmos 1242 Rocket 4.0 23:17:34 10° NNE 23:20:09 18° ENE 23:22:44 10° ESE
Meteor 1-21 Rocket 4.3 23:16:05 10° N 23:21:52 68° E 23:27:32 10° SSE
SMAP 3.6 23:17:36 10° S 23:22:12 64° W 23:26:48 10° NNW
Cosmos 968 Rocket 3.6 23:19:40 10° N 23:24:50 57° ENE 23:29:57 10° SSE
Cosmos 1271 Rocket 2.9 23:21:14 10° N 23:25:07 51° E 23:29:01 10° SSE
Cosmos 921 Rocket 3.9 23:21:11 10° SSW 23:25:36 57° WNW 23:30:02 10° N
Cosmos 1354 Rocket 4.2 23:21:38 10° N 23:26:43 51° ENE 23:31:47 10° SSE
Cosmos 2058 Rocket 3.0 23:22:30 10° S 23:26:50 69° E 23:31:09 10° NNE
H-2A R/B 3.3 23:24:08 10° S 23:27:55 63° W 23:31:47 10° NNW
CENTAUR R/B 4.0 23:27:40 10° ESE 23:29:12 11° ESE 23:30:47 10° E
Okean-O 2.8 23:27:02 10° S 23:31:27 81° W 23:35:53 10° NNW
Cosmos 2285 Rocket 4.0 23:26:11 10° N 23:32:35 69° ENE 23:38:54 10° SSE
SL-4 R/B 3.3 23:33:30 10° N 23:36:15 19° NE 23:38:03 14° ENE
ASTRO E2 3.8 23:34:48 10° W 23:38:35 41° SSW 23:42:22 10° SE
USA 238 DEB 3.7 23:34:21 10° SSW 23:40:51 60° ESE 23:47:28 10° NE
USA 238 3.7 23:34:28 10° SSW 23:40:57 59° ESE 23:47:34 10° NE
FUSE 4.0 23:40:03 10° W 23:45:23 74° S 23:49:35 17° E
YAOGAN 6 2.7 23:42:15 10° SSE 23:45:50 52° ENE 23:49:24 10° N
Cosmos 1703 3.8 23:44:22 10° NNE 23:47:58 36° E 23:51:34 10° SSE
Cosmos 1833 Rocket 4.4 23:47:30 10° NE 23:49:34 13° ENE 23:49:34 13° ENE
Cosmos 1503 Rocket 4.1 23:45:28 10° NNW 23:50:38 79° WSW 23:55:48 10° S
OAO 3 Rocket 4.5 23:47:12 10° WNW 23:51:33 30° N 23:54:50 15° NE
USA 116 3.7 23:48:56 10° N 23:52:12 69° WNW 23:55:48 10° SSW
COSMO-SKYMED 1 4.0 23:49:52 10° N 23:53:56 41° WNW 23:58:00 10° SW
BREEZE-M DEB (TANK) 3.6 23:48:07 10° NW 23:54:58 40° NNE 23:56:22 25° E
